Regional Weather Roundup
Issued by NWS Little Rock, AR

Home | Current Version | Previous Version | Graphics & Text | Print | Product List | Glossary On
Versions: 1 2 3 4 5 6 7 8 9 10 11 12 13 14 15 16 17 18 19 20 21 22 23 24 25 26 27 28 29 30 31 32
000
ASUS44 KLZK 280405
RWRLZK

WEATHER ROUNDUP FOR ARKANSAS
NATIONAL WEATHER SERVICE LITTLE ROCK AR
1100 PM CDT TUE SEP 27 2016

NOTE: "FAIR" INDICATES FEW OR NO CLOUDS BELOW 12,000 FEET WITH NO
SIGNIFICANT WEATHER AND/OR OBSTRUCTIONS TO VISIBILITY.

ARZ001-003-010-029-280500-
NORTHWEST ARKANSAS

CITY           SKY/WX    TMP DP  RH WIND       PRES   REMARKS
FAYETTEVILLE   CLEAR     55  52  89 S7        30.00S
FORT SMITH     CLEAR     62  49  62 CALM      29.98S
HARRISON       CLEAR     64  46  52 SW5       29.98S
BENTONVILLE    CLEAR     61  45  55 SW5       29.98F
ROGERS         CLEAR     64  48  56 SW10      29.99F
SILOAM SPGS    CLEAR     61  43  51 S5        30.00S
HIGHFILL       CLEAR     62  48  60 SW7       29.99S
$$

ARZ004-005-016-280500-
NORTH CENTRAL ARKANSAS

CITY           SKY/WX    TMP DP  RH WIND       PRES   REMARKS
BATESVILLE     CLEAR     57  52  82 CALM      29.96F
FLIPPIN        CLEAR     63  48  59 SW3       29.94S
MTN HOME       CLEAR     60  52  74 SW3       29.95S
$$

ARZ040-041-280500-
WEST CENTRAL ARKANSAS

CITY           SKY/WX    TMP DP  RH WIND       PRES   REMARKS
MENA           CLEAR     54  54 100 CALM      30.02S
MOUNT IDA      CLEAR     57  55  93 CALM      29.98F
$$

ARZ009-017-025-026-028-280500-
NORTHEAST ARKANSAS

CITY           SKY/WX    TMP DP  RH WIND       PRES   REMARKS
CORNING          N/A     61  54  77 SW10      29.93F
JONESBORO      CLEAR     61  48  62 SW3       29.94F
NEWPORT        CLEAR     59  52  77 S8        29.96S
WALNUT RIDGE   CLEAR     63  48  59 SW8       29.93F
BLYTHEVILLE    CLEAR     59  52  77 SW7       29.94F
$$

ARZ022-023-033-042-044-280500-
CENTRAL ARKANSAS

CITY           SKY/WX    TMP DP  RH WIND       PRES   REMARKS
LITTLE ROCK    CLEAR     62  54  74 SW5       29.98F
N LITTLE ROCK    N/A     65  50  56 CALM      29.96F
JACKSONVILLE   CLEAR     57  52  83 CALM      29.97F
SEARCY         CLEAR     56  55  97 CALM      29.98F
HOT SPRINGS    CLEAR     61  53  75 CALM      29.99F
RUSSELLVILLE   CLEAR     57  53  86 CALM      29.97F
$$

ARZ036-280500-
EAST ARKANSAS

CITY           SKY/WX    TMP DP  RH WIND       PRES   REMARKS
WEST MEMPHIS   CLEAR     55  49  80 CALM      29.95S
$$

ARZ050-053-066-070-073-280500-
SOUTHWEST ARKANSAS

CITY           SKY/WX    TMP DP  RH WIND       PRES   REMARKS
ARKADELPHIA    FOG       57  56  96 CALM      30.00S VSB 1/2
TEXARKANA      CLEAR     62  56  80 SW5       30.00S
EL DORADO      CLEAR     58  57  97 CALM      30.00F
DE QUEEN       FOG       58  58 100 CALM      29.99S VSB 1/2
$$

ARZ056-057-069-280500-
SOUTHEAST ARKANSAS

CITY           SKY/WX    TMP DP  RH WIND       PRES   REMARKS
PINE BLUFF     CLEAR     57  53  86 CALM      29.99S
STUTTGART      CLEAR     61  50  67 SW6       29.99S
MONTICELLO     PTCLDY    59  54  83 NW3       29.99F

$$






USA.gov is the U.S. government's official web portal to all federal, state and local government web resources and services.